Location: Unspecified
(44.4377°N, 88.0525°W)
Time: 11:47:04
(UTC-05:00)

Okean 3 - Pass Details

Date: 18 April 2019
Orbit: 576 x 602 km, 82.5° (Epoch: 24 May)

Event Time Altitude Azimuth Distance (km) Brightness Sun altitude
Exits shadow 02:08:55 27° 26° (NNE) 1,161 5.5 -32.1°
Drops below altitude 10° 02:10:57 10° 16° (NNE) 1,931 6.9 -32.0°
Sets 02:13:11 0° 13° (NNE) 2,833 8.0 -31.8°
